Погода в Ступино

Россия / Московская область     54°53′12″N   38°04′42″E
темп.,
°C
ветер,
м/с
пор.,
м/с
влажн.,
%
обл.,
%
осадки,
мм/ч
давл.,
гПа
погр.,
м
14 апреля, ср
ср1400:00+13ююв415585 0.0 1022369
03:00+10ююв4126948 0.0 1021228
06:00+9ююв31180100 0.0 1021237
09:00+13ююв487097 0.0 1020389
12:00+17ююв4656100 0.0 10191036
15:00+18ююв464179 0.0 10181567
18:00+17ююв234359 0.0 101852
21:00+12вюв225332 0.0 101815
15 апреля, чт
чт1500:00+10юв226094 0.0 101725
03:00+10юв226099 0.0 101711
06:00+9вюв2362100 0.0 101725
09:00+13вюв3455100 0.0 1017224
12:00+16в3444100 0.0 1017622
15:00+17всв4637100 0.0 10161479
18:00+15всв3749100 0.0 1016163
21:00+11ссв51168100 0.0 1017281
16 апреля, пт
пт1600:00+10св71387100 0.4 1018510
03:00+8св61189100 1.0 1018339
06:00+7св61287100 0.0 1019521
09:00+8всв51182100 0.0 1020576
12:00+13всв7967100 0.1 1020835
15:00+15в6959100 0.3 10201273
18:00+13всв71164100 0.0 1021957
21:00+11всв71471100 0.0 1022689
17 апреля, сб
сб1700:00+9всв6137899 0.1 1023604
03:00+7всв51280100 0.6 1025517
06:00+5всв61372100 0.1 1026463
09:00+8всв71360100 0.1 1027610
12:00+12всв794536 0.0 10271184
15:00+13всв793256 0.0 10271487
18:00+12всв6103934 0.0 10271151
21:00+8всв514505 0.0 1028542
18 апреля, вс
вс1800:00+5всв513610 0.0 1029417
03:00+4всв513690 0.0 1029350
06:00+3всв413745 0.0 1030336
09:00+8в611565 0.0 1030806
12:00+12в67415 0.0 10291559
15:00+13в56385 0.0 10291924
18:00+12в464552 0.0 1028694
21:00+8всв3106469 0.0 1029250